This demonstration page uses our WeatherBlox Daily Observations layout. Learn more.

Left ArrowRight Arrow

39.51506, -84.39828

Hourly Observations for October 19, 2021

Temp ( °F °C ) Dew Point ( °F °C ) Humidity (%) Winds ( mph kmh ) Pressure ( in mb ) Visibility ( mi km ) Precip ( " mm )
12:15 am 00:15 Clear 45 7 N/A N/A N N/A 30.19 1022 10 16 N/A
12:35 am 00:35 Clear 45 7 N/A N/A N N/A 30.19 1022 10 16 N/A
12:55 am 00:55 Clear 43 6 N/A N/A N N/A 30.19 1022 10 16 N/A
1:15 am 01:15 Clear 43 6 N/A N/A N N/A 30.20 1023 10 16 N/A
1:35 am 01:35 Hazy 45 7 N/A N/A N N/A 30.20 1023 7 11 N/A
1:55 am 01:55 Clear with Mist and Fog 43 6 N/A N/A N N/A 30.20 1023 3 5 N/A
2:15 am 02:15 Clear 43 6 N/A N/A N N/A 30.20 1023 7 11 N/A
2:35 am 02:35 Mostly Cloudy with Mist and Fog 43 6 N/A N/A N N/A 30.20 1023 1 1 N/A
2:55 am 02:55 Mostly Cloudy with Mist and Fog 43 6 N/A N/A N N/A 30.21 1023 1 2 N/A
3:15 am 03:15 Clear with Mist and Fog 43 6 N/A N/A N N/A 30.21 1023 3 4 N/A
3:35 am 03:35 Hazy 43 6 N/A N/A N N/A 30.21 1023 4 6 N/A
3:55 am 03:55 Clear with Mist and Fog 41 5 N/A N/A N N/A 30.21 1023 3 5 N/A
4:15 am 04:15 Clear 43 6 N/A N/A N N/A 30.21 1023 7 11 N/A
4:35 am 04:35 Clear with Mist and Fog 41 5 N/A N/A N N/A 30.21 1023 3 5 N/A
4:55 am 04:55 Mostly Cloudy with Fog 41 5 N/A N/A N N/A 30.21 1023 1 1 N/A
5:15 am 05:15 Mostly Cloudy with Mist and Fog 41 5 N/A N/A N N/A 30.22 1023 1 2 N/A
5:35 am 05:35 Cloudy with Fog 39 4 N/A N/A N N/A 30.22 1024 1 1 N/A
5:55 am 05:55 Cloudy with Fog 41 5 N/A N/A N N/A 30.23 1024 0 0 N/A
6:15 am 06:15 Cloudy with Fog 41 5 N/A N/A N N/A 30.24 1024 1 1 N/A
6:35 am 06:35 Cloudy with Fog 41 5 N/A N/A N N/A 30.24 1024 0 0 N/A
6:55 am 06:55 Cloudy with Fog 41 5 N/A N/A N N/A 30.25 1024 0 0 N/A
7:15 am 07:15 Cloudy with Fog 39 4 N/A N/A N N/A 30.25 1025 0 0 N/A
7:35 am 07:35 Cloudy with Fog 41 5 N/A N/A N N/A 30.25 1024 N/A N/A
7:55 am 07:55 Cloudy with Fog 39 4 N/A N/A N N/A 30.25 1025 N/A N/A
8:15 am 08:15 Cloudy with Fog 39 4 N/A N/A N N/A 30.26 1025 N/A N/A
8:35 am 08:35 Cloudy with Fog 41 5 N/A N/A N N/A 30.26 1025 0 0 N/A
8:55 am 08:55 Cloudy with Fog 43 6 N/A N/A N N/A 30.26 1025 0 0 N/A
9:15 am 09:15 Hazy 46 8 N/A N/A N N/A 30.26 1025 5 8 N/A
9:35 am 09:35 Sunny 48 9 N/A N/A N N/A 30.26 1025 10 16 N/A
9:55 am 09:55 Sunny 48 9 N/A N/A N N/A 30.26 1025 10 16 N/A
10:15 am 10:15 Sunny 52 11 N/A N/A SSW 3 6 30.26 1025 10 16 N/A
10:35 am 10:35 Sunny 53 11.8 52 10.9 94 94 SW 5 7 30.25 1025 10 16 N/A
10:55 am 10:55 Sunny 55 12.8 52 10.9 88 88 SSW 6 9 30.25 1024 10 16 N/A
11:15 am 11:15 Sunny 56 13.6 51 10.7 83 83 SSW 5 7 30.25 1024 10 16 N/A
11:35 am 11:35 Sunny 61 16.1 50 9.9 67 67 S 5 7 30.24 1024 10 16 N/A
11:55 am 11:55 Sunny 63 17.3 50 10.1 63 63 S 7 11 30.24 1024 10 16 N/A
12:15 pm 12:15 Sunny 66 19 48 9 52 52 SSW 7 11 30.23 1024 10 16 N/A
12:35 pm 12:35 Sunny 67 19.2 47 8.6 50 50 SSW 7 11 30.23 1024 10 16 N/A
12:55 pm 12:55 Sunny 68 20 48 9.1 50 50 SSW 7 11 30.21 1023 10 16 N/A
1:15 pm 13:15 Sunny 69 20.4 47 8.3 46 46 SW 8 13 30.20 1023 10 16 N/A
1:35 pm 13:35 Sunny 69 20.6 47 8.3 45 45 SW 7 11 30.19 1022 10 16 N/A
1:55 pm 13:55 Sunny 70 21 46 7.9 43 43 S 13 20 30.17 1022 10 16 N/A
2:15 pm 14:15 Sunny 70 21 46 7.6 42 42 SSW 10 17 30.17 1022 10 16 N/A
2:35 pm 14:35 Sunny 71 21.4 45 7.2 40 40 SW 12 19 30.16 1021 10 16 N/A
2:55 pm 14:55 Sunny 71 21.4 44 6.5 38 38 WSW 9 15 30.16 1021 10 16 N/A
3:15 pm 15:15 Sunny 71 21.6 44 6.7 38 38 SW 10 17 30.15 1021 10 16 N/A
3:35 pm 15:35 Sunny 71 21.6 44 6.9 39 39 SW 9 15 30.15 1021 10 16 N/A
3:55 pm 15:55 Sunny 71 21.7 45 7.1 39 39 S 7 11 30.15 1021 10 16 N/A
4:15 pm 16:15 Sunny 70 21.3 45 7.3 41 41 SW 8 13 30.14 1021 10 16 N/A
4:35 pm 16:35 Sunny 71 21.8 45 7.2 39 39 SSW 10 17 30.14 1021 10 16 N/A
4:55 pm 16:55 Sunny 71 21.6 47 8.4 43 43 SW 9 15 30.14 1021 10 16 N/A
5:15 pm 17:15 Sunny 69 20.5 45 7.3 43 43 SW 9 15 30.13 1020 10 16 N/A
5:35 pm 17:35 Sunny 66 19.1 46 7.9 48 48 SW 7 11 30.14 1021 10 16 N/A
5:55 pm 17:55 Sunny 65 18.5 48 9.1 54 54 WSW 6 9 30.14 1021 10 16 N/A
6:15 pm 18:15 Sunny 64 18 49 9.4 57 57 WSW 5 7 30.15 1021 10 16 N/A
6:35 pm 18:35 Sunny 64 17.7 49 9.3 58 58 W 3 6 30.15 1021 10 16 N/A
6:55 pm 18:55 Clear 62 16.5 50 9.9 65 65 N N/A 30.15 1021 10 16 N/A
7:15 pm 19:15 Clear 58 14.3 53 11.9 86 86 N N/A 30.16 1021 10 16 N/A
7:35 pm 19:35 Clear 56 13.3 54 12.3 94 94 N N/A 30.16 1021 10 16 N/A
7:55 pm 19:55 Clear 55 12.7 54 12 96 96 N N/A 30.16 1021 10 16 N/A
8:15 pm 20:15 Clear 53 11.9 53 11.6 98 98 N N/A 30.17 1022 10 16 N/A
8:35 pm 20:35 Clear 54 12.1 52 11.1 94 94 N N/A 30.17 1022 10 16 N/A
8:55 pm 20:55 Clear 52 11.1 52 11 99 99 N N/A 30.18 1022 10 16 N/A
9:15 pm 21:15 Clear 52 11.1 51 10.8 98 98 N N/A 30.19 1022 10 16 N/A
9:35 pm 21:35 Clear 52 11 52 11 100 100 N N/A 30.18 1022 10 16 N/A
9:55 pm 21:55 Clear 50 10 50 10 100 100 N N/A 30.18 1022 10 16 N/A
10:15 pm 22:15 Clear 50 9.8 49 9.7 99 99 N N/A 30.19 1022 10 16 N/A
10:35 pm 22:35 Clear 48 9 N/A N/A N N/A 30.19 1022 10 16 N/A
10:55 pm 22:55 Clear 48 9 N/A N/A N N/A 30.19 1022 10 16 N/A
11:15 pm 23:15 Clear 48 9 N/A N/A N N/A 30.19 1022 10 16 N/A
11:35 pm 23:35 Hazy 46 8 N/A N/A N N/A 30.20 1023 4 6 N/A
11:55 pm 23:55 Hazy 46 8 N/A N/A N N/A 30.19 1022 3 4 N/A

Powered by AerisWeather